,,Stat6,,Stat2,,Stat8,,Stat9,,Stat10,,Wind1,,Wind1,
time,status,PA1M_AVG,status,PR1M_SUM,status,RH1M_AVG,status,SR1M_AVG,status,TA1M_AVG,status,W1dAve1m,status,W1sAve1m,
2006-10-14, 07:00:01,VALID,920.924,VALID,0,VALID,100,VALID,0.0169808,VALID,20.4314,VALID,255,VALID,0,
2006-10-14, 07:01:00,VALID,920.903,VALID,0,VALID,100,VALID,0.0339617,VALID,20.4346,VALID,255,VALID,0,
2006-10-14, 07:02:00,VALID,920.892,VALID,0,VALID,100,VALID,0.0339617,VALID,20.4346,VALID,255,VALID,0,
2006-10-14, 07:03:00,VALID,920.879,VALID,0,VALID,100,VALID,0,VALID,20.4152,VALID,255,VALID,0.026456,
2006-10-14, 07:04:00,VALID,920.867,VALID,0,VALID,100,VALID,0.0169808,VALID,20.4187,VALID,255,VALID,0.105283,
2006-10-14, 07:05:00,VALID,920.857,VALID,0,VALID,100,VALID,0.0509425,VALID,20.409,VALID,255,VALID,0.255526,
2006-10-14, 07:06:00,VALID,920.833,VALID,0,VALID,100,VALID,0.0679233,VALID,20.3999,VALID,255,VALID,0.0828488,
2006-10-14, 07:07:00,VALID,920.825,VALID,0,VALID,100,VALID,0.0169808,VALID,20.3864,VALID,255,VALID,0.0012718,
2006-10-14, 07:08:00,VALID,920.805,VALID,0,VALID,100,VALID,0,VALID,20.3944,VALID,255,VALID,0,
2006-10-14, 07:09:00,VALID,920.779,VALID,0,VALID,100,VALID,0,VALID,20.3944,VALID,255,VALID,0,
2006-10-14, 07:10:00,VALID,920.766,VALID,0,VALID,100,VALID,0,VALID,20.4039,VALID,255,VALID,0,
2006-10-14, 07:11:00,VALID,920.756,VALID,0,VALID,100,VALID,-0.0169808,VALID,20.4009,VALID,255,VALID,0.153773,
2006-10-14, 07:12:00,VALID,920.758,VALID,0,VALID,100,VALID,0,VALID,20.4138,VALID,255,VALID,0.116616,
2006-10-14, 07:13:00,VALID,920.749,VALID,0,VALID,100,VALID,-0.0169808,VALID,20.4098,VALID,255,VALID,0.00195313,
2006-10-14, 07:14:00,VALID,920.745,VALID,0,VALID,100,VALID,0,VALID,20.4364,VALID,255,VALID,0.0602134,
2006-10-14, 07:15:00,VALID,920.731,VALID,0,VALID,100,VALID,-0.0169808,VALID,20.4232,VALID,255,VALID,0,
2006-10-14, 07:16:00,VALID,920.717,VALID,0,VALID,100,VALID,0,VALID,20.423,VALID,255,VALID,0.087936,
2006-10-14, 07:17:00,VALID,920.701,VALID,0,VALID,100,VALID,0,VALID,20.4163,VALID,255,VALID,0.231831,
2006-10-14, 07:18:00,VALID,920.66,VALID,0,VALID,100,VALID,0,VALID,20.4101,VALID,255,VALID,0.166466,
2006-10-14, 07:19:00,VALID,920.635,VALID,0,VALID,100,VALID,0,VALID,20.4039,VALID,255,VALID,0.185292,
2006-10-14, 07:20:00,VALID,920.617,VALID,0,VALID,100,VALID,-0.0169808,VALID,20.3845,VALID,255,VALID,0.342262,
2006-10-14, 07:21:00,VALID,920.616,VALID,0,VALID,100,VALID,-0.0169808,VALID,20.385,VALID,258,VALID,0.575174,
2006-10-14, 07:22:00,VALID,920.611,VALID,0,VALID,100,VALID,0,VALID,20.3783,VALID,259,VALID,0.632999,
2006-10-14, 07:23:00,VALID,920.611,VALID,0,VALID,100,VALID,-0.0169808,VALID,20.3689,VALID,260,VALID,0.438802,
2006-10-14, 07:24:00,VALID,920.622,VALID,0,VALID,100,VALID,-0.0169808,VALID,20.3589,VALID,260,VALID,0.481105,
2006-10-14, 07:25:00,VALID,920.633,VALID,0,VALID,100,VALID,-0.0169808,VALID,20.3552,VALID,261,VALID,0.438058,
2006-10-14, 07:26:00,VALID,920.63,VALID,0,VALID,100,VALID,0,VALID,20.3522,VALID,262,VALID,0.545117,
2006-10-14, 07:27:00,VALID,920.626,VALID,0,VALID,100,VALID,0,VALID,20.352,VALID,262,VALID,0.45206,
2006-10-14, 07:28:00,VALID,920.626,VALID,0,VALID,100,VALID,0,VALID,20.3525,VALID,262,VALID,0.313408,
2006-10-14, 07:29:00,VALID,920.614,VALID,0,VALID,100,VALID,0,VALID,20.3493,VALID,262,VALID,0.164418,
2006-10-14, 07:30:00,VALID,920.601,VALID,0,VALID,100,VALID,0,VALID,20.3458,VALID,262,VALID,0.000868056,
2006-10-14, 07:31:00,VALID,920.593,VALID,0,VALID,100,VALID,-0.0339617,VALID,20.3396,VALID,262,VALID,0.0435268,
2006-10-14, 07:32:00,VALID,920.587,VALID,0,VALID,100,VALID,-0.0169808,VALID,20.3329,VALID,262,VALID,0,
2006-10-14, 07:33:00,VALID,920.571,VALID,0,VALID,100,VALID,0,VALID,20.3428,VALID,262,VALID,0,
2006-10-14, 07:34:00,VALID,920.561,VALID,0,VALID,100,VALID,0,VALID,20.3294,VALID,262,VALID,0,
2006-10-14, 07:35:00,VALID,920.556,VALID,0,VALID,100,VALID,0,VALID,20.3358,VALID,262,VALID,0,
2006-10-14, 07:36:00,VALID,920.531,VALID,0,VALID,100,VALID,0,VALID,20.3264,VALID,262,VALID,0,
2006-10-14, 07:37:00,VALID,920.515,VALID,0,VALID,100,VALID,-0.0169808,VALID,20.3232,VALID,262,VALID,0,
2006-10-14, 07:38:00,VALID,920.496,VALID,0,VALID,100,VALID,0,VALID,20.3127,VALID,262,VALID,0,
2006-10-14, 07:39:00,VALID,920.461,VALID,0,VALID,100,VALID,0,VALID,20.3199,VALID,262,VALID,0,
2006-10-14, 07:40:00,VALID,920.446,VALID,0,VALID,100,VALID,0,VALID,20.3272,VALID,262,VALID,0,
2006-10-14, 07:41:00,VALID,920.428,VALID,0,VALID,100,VALID,-0.0169808,VALID,20.3075,VALID,262,VALID,0,
2006-10-14, 07:42:00,VALID,920.418,VALID,0,VALID,100,VALID,0,VALID,20.2909,VALID,262,VALID,0,
2006-10-14, 07:43:00,VALID,920.409,VALID,0,VALID,100,VALID,0,VALID,20.2755,VALID,262,VALID,0,
2006-10-14, 07:44:00,VALID,920.384,VALID,0,VALID,100,VALID,0.0169808,VALID,20.2522,VALID,262,VALID,0.0957485,
2006-10-14, 07:45:00,VALID,920.372,VALID,0,VALID,100,VALID,0,VALID,20.2556,VALID,262,VALID,0.077753,
2006-10-14, 07:46:00,VALID,920.361,VALID,0,VALID,100,VALID,0,VALID,20.246,VALID,262,VALID,0.113948,
2006-10-14, 07:47:00,VALID,920.349,VALID,0,VALID,100,VALID,0,VALID,20.2263,VALID,262,VALID,0.0999645,
2006-10-14, 07:48:00,VALID,920.349,VALID,0,VALID,100,VALID,0,VALID,20.2268,VALID,262,VALID,0.0550781,
2006-10-14, 07:49:00,VALID,920.327,VALID,0,VALID,100,VALID,-0.0169808,VALID,20.2134,VALID,262,VALID,0.306076,
2006-10-14, 07:50:00,VALID,920.33,VALID,0,VALID,100,VALID,-0.0339617,VALID,20.1973,VALID,262,VALID,0.256747,
2006-10-14, 07:51:00,VALID,920.334,VALID,0,VALID,100,VALID,0,VALID,20.171,VALID,262,VALID,0.176491,
2006-10-14, 07:52:00,VALID,920.334,VALID,0,VALID,100,VALID,-0.0169808,VALID,20.1586,VALID,262,VALID,0.0659299,
2006-10-14, 07:53:00,VALID,920.331,VALID,0,VALID,100,VALID,0,VALID,20.1392,VALID,262,VALID,0,
2006-10-14, 07:54:00,VALID,920.317,VALID,0,VALID,100,VALID,-0.0169808,VALID,20.1424,VALID,262,VALID,0,
2006-10-14, 07:55:00,VALID,920.303,VALID,0,VALID,100,VALID,0,VALID,20.1491,VALID,262,VALID,0,
2006-10-14, 07:56:00,VALID,920.281,VALID,0,VALID,100,VALID,0,VALID,20.1424,VALID,262,VALID,0,
2006-10-14, 07:57:00,VALID,920.259,VALID,0,VALID,100,VALID,0,VALID,20.1454,VALID,262,VALID,0.0101207,
2006-10-14, 07:58:00,VALID,920.237,VALID,0,VALID,100,VALID,-0.0169808,VALID,20.1491,VALID,262,VALID,0.111607,
2006-10-14, 07:59:00,VALID,920.225,VALID,0,VALID,100,VALID,0,VALID,20.1459,VALID,262,VALID,0.0933949,
2006-10-14, 08:00:00,VALID,920.208,VALID,0,VALID,100,VALID,0,VALID,20.1526,VALID,262,VALID,0,
2006-10-14, 08:01:00,VALID,920.2,VALID,0,VALID,100,VALID,-0.0169808,VALID,20.1553,VALID,262,VALID,0,
2006-10-14, 08:02:00,VALID,920.183,VALID,0,VALID,100,VALID,0,VALID,20.162,VALID,262,VALID,0,
2006-10-14, 08:03:00,VALID,920.172,VALID,0,VALID,100,VALID,0,VALID,20.1819,VALID,262,VALID,0,
2006-10-14, 08:04:00,VALID,920.161,VALID,0,VALID,100,VALID,0,VALID,20.1779,VALID,262,VALID,0,
2006-10-14, 08:05:00,VALID,920.128,VALID,0,VALID,100,VALID,-0.0169808,VALID,20.1846,VALID,262,VALID,0,
2006-10-14, 08:06:00,VALID,920.118,VALID,0,VALID,100,VALID,0,VALID,20.1978,VALID,262,VALID,0,
2006-10-14, 08:07:00,VALID,920.105,VALID,0,VALID,100,VALID,-0.0339617,VALID,20.2072,VALID,262,VALID,0.256793,
2006-10-14, 08:08:00,VALID,920.076,VALID,0,VALID,100,VALID,-0.0339617,VALID,20.204,VALID,262,VALID,0.369565,
2006-10-14, 08:09:00,VALID,920.061,VALID,0,VALID,100,VALID,-0.0339617,VALID,20.1846,VALID,262,VALID,0.5359,
2006-10-14, 08:10:00,VALID,920.043,VALID,0,VALID,100,VALID,0,VALID,20.1886,VALID,254,VALID,0.597284,
2006-10-14, 08:11:00,VALID,920.029,VALID,0,VALID,100,VALID,0,VALID,20.1682,VALID,258,VALID,0.658681,
2006-10-14, 08:12:00,VALID,920.024,VALID,0,VALID,100,VALID,-0.0509425,VALID,20.1784,VALID,276,VALID,0.615513,
2006-10-14, 08:13:00,VALID,920.007,VALID,0,VALID,100,VALID,0,VALID,20.1911,VALID,282,VALID,0.580951,
2006-10-14, 08:14:00,VALID,919.998,VALID,0,VALID,100,VALID,-0.0339617,VALID,20.1749,VALID,274,VALID,0.733173,
2006-10-14, 08:15:00,VALID,919.983,VALID,0,VALID,100,VALID,-0.0169808,VALID,20.172,VALID,266,VALID,0.684766,
2006-10-14, 08:16:00,VALID,919.987,VALID,0,VALID,100,VALID,-0.0169808,VALID,20.1588,VALID,274,VALID,0.628551,
2006-10-14, 08:17:00,VALID,919.98,VALID,0,VALID,100,VALID,0,VALID,20.1553,VALID,279,VALID,0.610863,
2006-10-14, 08:18:00,VALID,919.977,VALID,0,VALID,100,VALID,0,VALID,20.1419,VALID,279,VALID,0.583651,
2006-10-14, 08:19:00,VALID,919.987,VALID,0,VALID,100,VALID,0,VALID,20.1489,VALID,279,VALID,0.324219,
2006-10-14, 08:20:00,VALID,919.969,VALID,0,VALID,100,VALID,-0.0169808,VALID,20.1491,VALID,279,VALID,0.0565972,
2006-10-14, 08:21:00,VALID,919.972,VALID,0,VALID,100,VALID,-0.0169808,VALID,20.1524,VALID,279,VALID,0.00199468,
2006-10-14, 08:22:00,VALID,919.957,VALID,0,VALID,100,VALID,0,VALID,20.1663,VALID,279,VALID,0,
2006-10-14, 08:23:00,VALID,919.951,VALID,0,VALID,100,VALID,0,VALID,20.1822,VALID,279,VALID,0.134909,
2006-10-14, 08:24:00,VALID,919.94,VALID,0,VALID,100,VALID,-0.0169808,VALID,20.1913,VALID,278,VALID,0.312678,
2006-10-14, 08:25:00,VALID,919.929,VALID,0,VALID,100,VALID,0,VALID,20.1817,VALID,278,VALID,0.214134,
2006-10-14, 08:26:00,VALID,919.923,VALID,0,VALID,100,VALID,-0.0339617,VALID,20.1717,VALID,278,VALID,0.43285,
2006-10-14, 08:27:00,VALID,919.909,VALID,0,VALID,100,VALID,0,VALID,20.1526,VALID,279,VALID,0.472317,
2006-10-14, 08:28:00,VALID,919.903,VALID,0,VALID,100,VALID,0,VALID,20.1427,VALID,280,VALID,0.303163,
2006-10-14, 08:29:00,VALID,919.908,VALID,0,VALID,100,VALID,0,VALID,20.1524,VALID,280,VALID,0.50293,
2006-10-14, 08:30:00,VALID,919.892,VALID,0,VALID,100,VALID,0,VALID,20.1551,VALID,280,VALID,0.347098,
2006-10-14, 08:31:00,VALID,919.885,VALID,0,VALID,100,VALID,0,VALID,20.1715,VALID,280,VALID,0.316692,
2006-10-14, 08:32:00,VALID,919.873,VALID,0,VALID,100,VALID,0,VALID,20.1521,VALID,280,VALID,0.236151,
2006-10-14, 08:33:00,VALID,919.852,VALID,0,VALID,100,VALID,0,VALID,20.1462,VALID,280,VALID,0.13559,
2006-10-14, 08:34:00,VALID,919.841,VALID,0,VALID,100,VALID,0,VALID,20.1556,VALID,280,VALID,0.000390625,
2006-10-14, 08:35:00,VALID,919.827,VALID,0,VALID,100,VALID,0,VALID,20.1489,VALID,280,VALID,0.226385,
2006-10-14, 08:36:00,VALID,919.805,VALID,0,VALID,100,VALID,0,VALID,20.1325,VALID,280,VALID,0.132813,
2006-10-14, 08:37:00,VALID,919.797,VALID,0,VALID,100,VALID,0,VALID,20.1233,VALID,280,VALID,0.0405506,
2006-10-14, 08:38:00,VALID,919.779,VALID,0,VALID,100,VALID,-0.0339617,VALID,20.1263,VALID,280,VALID,0.0181686,
2006-10-14, 08:39:00,VALID,919.759,VALID,0,VALID,100,VALID,0,VALID,20.1325,VALID,280,VALID,0.0819444,
2006-10-14, 08:40:00,VALID,919.747,VALID,0,VALID,100,VALID,0,VALID,20.1588,VALID,280,VALID,0.0485197,
2006-10-14, 08:41:00,VALID,919.73,VALID,0,VALID,100,VALID,0.0169808,VALID,20.1655,VALID,280,VALID,0,
2006-10-14, 08:42:00,VALID,919.721,VALID,0,VALID,100,VALID,0,VALID,20.1849,VALID,280,VALID,0,
2006-10-14, 08:43:00,VALID,919.707,VALID,0,VALID,100,VALID,0,VALID,20.1749,VALID,280,VALID,0,
2006-10-14, 08:44:00,VALID,919.697,VALID,0,VALID,100,VALID,0,VALID,20.1782,VALID,280,VALID,0,
2006-10-14, 08:45:00,VALID,919.69,VALID,0,VALID,100,VALID,-0.0169808,VALID,20.1812,VALID,280,VALID,0.0517361,
2006-10-14, 08:46:00,VALID,919.671,VALID,0,VALID,100,VALID,0,VALID,20.1946,VALID,280,VALID,0.396662,
2006-10-14, 08:47:00,VALID,919.668,VALID,0,VALID,100,VALID,0,VALID,20.1975,VALID,280,VALID,0.371466,
2006-10-14, 08:48:00,VALID,919.639,VALID,0,VALID,100,VALID,0,VALID,20.2037,VALID,280,VALID,0.38228,
2006-10-14, 08:49:00,VALID,919.625,VALID,0,VALID,100,VALID,0.0169808,VALID,20.2139,VALID,281,VALID,0.398996,
2006-10-14, 08:50:00,VALID,919.599,VALID,0,VALID,100,VALID,0,VALID,20.2169,VALID,281,VALID,0.467361,
2006-10-14, 08:51:00,VALID,919.576,VALID,0,VALID,100,VALID,0,VALID,20.207,VALID,281,VALID,0.425327,
2006-10-14, 08:52:00,VALID,919.557,VALID,0,VALID,100,VALID,0,VALID,20.1844,VALID,282,VALID,0.460417,
2006-10-14, 08:53:00,VALID,919.538,VALID,0,VALID,100,VALID,0.0339617,VALID,20.1772,VALID,283,VALID,0.528472,
2006-10-14, 08:54:00,VALID,919.534,VALID,0,VALID,100,VALID,0,VALID,20.1682,VALID,289,VALID,0.71224,
2006-10-14, 08:55:00,VALID,919.529,VALID,0,VALID,100,VALID,0,VALID,20.1586,VALID,294,VALID,0.801258,
2006-10-14, 08:56:00,VALID,919.521,VALID,0,VALID,100,VALID,0.0509425,VALID,20.1422,VALID,294,VALID,0.800114,
2006-10-14, 08:57:00,VALID,919.515,VALID,0,VALID,100,VALID,0.0169808,VALID,20.1298,VALID,293,VALID,0.846875,
2006-10-14, 08:58:00,VALID,919.517,VALID,0,VALID,100,VALID,0,VALID,20.1067,VALID,289,VALID,0.843178,
2006-10-14, 08:59:00,VALID,919.502,VALID,0,VALID,100,VALID,-0.0169808,VALID,20.101,VALID,289,VALID,0.721354,
2006-10-14, 09:00:00,VALID,919.505,VALID,0,VALID,100,VALID,0,VALID,20.0746,VALID,289,VALID,0.461914,
2006-10-14, 09:01:00,VALID,919.489,VALID,0,VALID,100,VALID,0,VALID,20.0523,VALID,289,VALID,0.391602,
2006-10-14, 09:02:00,VALID,919.486,VALID,0,VALID,100,VALID,0,VALID,20.0525,VALID,290,VALID,0.339844,
2006-10-14, 09:03:00,VALID,919.486,VALID,0,VALID,100,VALID,0,VALID,20.0262,VALID,294,VALID,0.433966,
2006-10-14, 09:04:00,VALID,919.468,VALID,0,VALID,100,VALID,0,VALID,20.0203,VALID,295,VALID,0.246626,
2006-10-14, 09:05:00,VALID,919.468,VALID,0,VALID,100,VALID,0.0169808,VALID,19.9972,VALID,295,VALID,0.00308866,
2006-10-14, 09:06:00,VALID,919.458,VALID,0,VALID,100,VALID,0.0509425,VALID,19.9778,VALID,295,VALID,0,
2006-10-14, 09:07:00,VALID,919.448,VALID,0,VALID,100,VALID,0.0339617,VALID,19.952,VALID,295,VALID,0,
2006-10-14, 09:08:00,VALID,919.442,VALID,0,VALID,100,VALID,0.0169808,VALID,19.9458,VALID,295,VALID,0.188772,
2006-10-14, 09:09:00,VALID,919.433,VALID,0,VALID,100,VALID,0,VALID,19.9326,VALID,295,VALID,0.303234,
2006-10-14, 09:10:00,VALID,919.414,VALID,0,VALID,100,VALID,0.0169808,VALID,19.92,VALID,295,VALID,0.378452,
2006-10-14, 09:11:00,VALID,919.387,VALID,0,VALID,100,VALID,0,VALID,19.9006,VALID,295,VALID,0.318677,
2006-10-14, 09:12:00,VALID,919.396,VALID,0,VALID,100,VALID,0,VALID,19.8907,VALID,295,VALID,0.543679,
2006-10-14, 09:13:00,VALID,919.378,VALID,0,VALID,100,VALID,0.0169808,VALID,19.8877,VALID,297,VALID,0.699886,
2006-10-14, 09:14:00,VALID,919.36,VALID,0,VALID,100,VALID,0,VALID,19.875,VALID,301,VALID,0.572798,
2006-10-14, 09:15:00,VALID,919.357,VALID,0,VALID,100,VALID,0,VALID,19.8519,VALID,301,VALID,0.56901,
2006-10-14, 09:16:00,VALID,919.354,VALID,0,VALID,100,VALID,0.0169808,VALID,19.8423,VALID,299,VALID,0.596058,
2006-10-14, 09:17:00,VALID,919.35,VALID,0,VALID,100,VALID,0,VALID,19.8261,VALID,298,VALID,0.751488,
2006-10-14, 09:18:00,VALID,919.352,VALID,0,VALID,100,VALID,-0.0169808,VALID,19.8068,VALID,296,VALID,0.548047,
2006-10-14, 09:19:00,VALID,919.351,VALID,0,VALID,100,VALID,0.0169808,VALID,19.7943,VALID,306,VALID,0.832317,
2006-10-14, 09:20:00,VALID,919.336,VALID,0,VALID,100,VALID,-0.0169808,VALID,19.7881,VALID,316,VALID,0.706836,
2006-10-14, 09:21:00,VALID,919.329,VALID,0,VALID,100,VALID,0,VALID,19.7787,VALID,316,VALID,0.625,
2006-10-14, 09:22:00,VALID,919.323,VALID,0,VALID,100,VALID,-0.0169808,VALID,19.7588,VALID,316,VALID,0.75957,
2006-10-14, 09:23:00,VALID,919.311,VALID,0,VALID,100,VALID,0,VALID,19.7524,VALID,307,VALID,0.708079,
2006-10-14, 09:24:00,VALID,919.291,VALID,0,VALID,100,VALID,0,VALID,19.7588,VALID,302,VALID,0.693859,
2006-10-14, 09:25:00,VALID,919.278,VALID,0,VALID,100,VALID,0,VALID,19.766,VALID,294,VALID,0.710751,
2006-10-14, 09:26:00,VALID,919.267,VALID,0,VALID,100,VALID,0,VALID,19.7497,VALID,296,VALID,0.683677,
2006-10-14, 09:27:00,VALID,919.252,VALID,0,VALID,100,VALID,0,VALID,19.7432,VALID,298,VALID,0.643864,
2006-10-14, 09:28:00,VALID,919.256,VALID,0,VALID,100,VALID,-0.0169808,VALID,19.7268,VALID,298,VALID,0.5875,
2006-10-14, 09:29:00,VALID,919.254,VALID,0,VALID,100,VALID,0,VALID,19.7236,VALID,298,VALID,0.560404,
2006-10-14, 09:30:00,VALID,919.272,VALID,0,VALID,100,VALID,0.0169808,VALID,19.7134,VALID,298,VALID,0.582201,
2006-10-14, 09:31:00,VALID,919.268,VALID,0,VALID,100,VALID,-0.0169808,VALID,19.7107,VALID,298,VALID,0.394097,
2006-10-14, 09:32:00,VALID,919.263,VALID,0,VALID,100,VALID,0,VALID,19.7276,VALID,298,VALID,0.174716,
2006-10-14, 09:33:00,VALID,919.276,VALID,0,VALID,100,VALID,-0.0169808,VALID,19.7271,VALID,298,VALID,0.192224,
2006-10-14, 09:34:00,VALID,919.267,VALID,0,VALID,100,VALID,-0.0169808,VALID,19.7499,VALID,298,VALID,0.1746,
2006-10-14, 09:35:00,VALID,919.27,VALID,0,VALID,100,VALID,-0.0169808,VALID,19.7432,VALID,298,VALID,0.0809832,
2006-10-14, 09:36:00,VALID,919.258,VALID,0,VALID,100,VALID,-0.0169808,VALID,19.7268,VALID,298,VALID,0,
2006-10-14, 09:37:00,VALID,919.261,VALID,0,VALID,100,VALID,-0.0509425,VALID,19.7271,VALID,298,VALID,0.120916,
2006-10-14, 09:38:00,VALID,919.263,VALID,0,VALID,100,VALID,0,VALID,19.7204,VALID,298,VALID,0.327778,
2006-10-14, 09:39:00,VALID,919.271,VALID,0,VALID,100,VALID,0,VALID,19.7171,VALID,298,VALID,0.333841,
2006-10-14, 09:40:00,VALID,919.278,VALID,0,VALID,100,VALID,0,VALID,19.7335,VALID,351,VALID,0.545573,
2006-10-14, 09:41:00,VALID,919.291,VALID,0,VALID,100,VALID,0,VALID,19.7464,VALID,55,VALID,0.325267,
2006-10-14, 09:42:00,VALID,919.3,VALID,0,VALID,100,VALID,0,VALID,19.7598,VALID,42,VALID,0.675868,
2006-10-14, 09:43:00,VALID,919.313,VALID,0,VALID,100,VALID,-0.0169808,VALID,19.7598,VALID,37,VALID,0.903942,
2006-10-14, 09:44:00,VALID,919.325,VALID,0,VALID,100,VALID,-0.0169808,VALID,19.7427,VALID,24,VALID,0.545277,
2006-10-14, 09:45:00,VALID,919.334,VALID,0,VALID,100,VALID,0,VALID,19.7296,VALID,22,VALID,0.338796,
2006-10-14, 09:46:00,VALID,919.327,VALID,0,VALID,100,VALID,0,VALID,19.7464,VALID,22,VALID,0.289418,
2006-10-14, 09:47:00,VALID,919.325,VALID,0,VALID,100,VALID,0,VALID,19.7499,VALID,18,VALID,0.353468,
2006-10-14, 09:48:00,VALID,919.315,VALID,0,VALID,100,VALID,0,VALID,19.7623,VALID,311,VALID,0.498857,
2006-10-14, 09:49:00,VALID,919.304,VALID,0,VALID,100,VALID,-0.0169808,VALID,19.7621,VALID,298,VALID,0.550781,
2006-10-14, 09:50:00,VALID,919.308,VALID,0,VALID,100,VALID,-0.0169808,VALID,19.7819,VALID,298,VALID,0.464208,
2006-10-14, 09:51:00,VALID,919.316,VALID,0,VALID,100,VALID,0,VALID,19.7881,VALID,298,VALID,0.521913,
2006-10-14, 09:52:00,VALID,919.317,VALID,0,VALID,100,VALID,-0.0169808,VALID,19.7953,VALID,298,VALID,0.53497,
2006-10-14, 09:53:00,VALID,919.324,VALID,0,VALID,100,VALID,-0.0339617,VALID,19.7792,VALID,298,VALID,0.576723,
2006-10-14, 09:54:00,VALID,919.325,VALID,0,VALID,100,VALID,-0.0169808,VALID,19.7822,VALID,298,VALID,0.742551,
2006-10-14, 09:55:00,VALID,919.325,VALID,0,VALID,100,VALID,0,VALID,19.7588,VALID,298,VALID,0.733008,
2006-10-14, 09:56:00,VALID,919.303,VALID,0,VALID,100,VALID,0,VALID,19.766,VALID,298,VALID,0.714844,
2006-10-14, 09:57:00,VALID,919.296,VALID,0,VALID,100,VALID,0,VALID,19.7531,VALID,298,VALID,0.679506,
2006-10-14, 09:58:00,VALID,919.283,VALID,0,VALID,100,VALID,-0.0169808,VALID,19.7367,VALID,299,VALID,0.722929,
2006-10-14, 09:59:00,VALID,919.263,VALID,0,VALID,100,VALID,0,VALID,19.7303,VALID,301,VALID,0.731318,
2006-10-14, 10:00:00,VALID,919.251,VALID,0,VALID,100,VALID,-0.0169808,VALID,19.7405,VALID,310,VALID,0.81032,
2006-10-14, 10:01:00,VALID,919.249,VALID,0,VALID,100,VALID,0,VALID,19.7338,VALID,316,VALID,0.765625,
2006-10-14, 10:02:00,VALID,919.244,VALID,0,VALID,100,VALID,-0.0169808,VALID,19.7211,VALID,314,VALID,0.77983,
2006-10-14, 10:03:00,VALID,919.249,VALID,0,VALID,100,VALID,-0.0339617,VALID,19.7047,VALID,321,VALID,0.826736,
2006-10-14, 10:04:00,VALID,919.236,VALID,0,VALID,100,VALID,0,VALID,19.695,VALID,329,VALID,0.522135,
2006-10-14, 10:05:00,VALID,919.224,VALID,0,VALID,100,VALID,-0.0509425,VALID,19.6918,VALID,332,VALID,0.37168,
2006-10-14, 10:06:00,VALID,919.213,VALID,0,VALID,100,VALID,-0.0339617,VALID,19.6888,VALID,333,VALID,0.0978423,
2006-10-14, 10:07:00,VALID,919.213,VALID,0,VALID,100,VALID,-0.0169808,VALID,19.6953,VALID,333,VALID,0.0250727,
2006-10-14, 10:08:00,VALID,919.192,VALID,0,VALID,100,VALID,-0.0339617,VALID,19.6923,VALID,333,VALID,0,
2006-10-14, 10:09:00,VALID,919.212,VALID,0,VALID,100,VALID,0,VALID,19.6819,VALID,333,VALID,0,
2006-10-14, 10:10:00,VALID,919.209,VALID,0,VALID,100,VALID,-0.0169808,VALID,19.6881,VALID,333,VALID,0,
2006-10-14, 10:11:00,VALID,919.21,VALID,0,VALID,100,VALID,0,VALID,19.6918,VALID,333,VALID,0,
2006-10-14, 10:12:00,VALID,919.217,VALID,0,VALID,100,VALID,0,VALID,19.7045,VALID,333,VALID,0,
2006-10-14, 10:13:00,VALID,919.212,VALID,0,VALID,100,VALID,0,VALID,19.7174,VALID,333,VALID,0,
2006-10-14, 10:14:00,VALID,919.219,VALID,0,VALID,100,VALID,0.0169808,VALID,19.7171,VALID,333,VALID,0.00117188,
2006-10-14, 10:15:00,VALID,919.206,VALID,0,VALID,100,VALID,-0.0169808,VALID,19.734,VALID,333,VALID,0,
2006-10-14, 10:16:00,VALID,919.207,VALID,0,VALID,100,VALID,0,VALID,19.7238,VALID,333,VALID,0,
2006-10-14, 10:17:00,VALID,919.198,VALID,0,VALID,100,VALID,0,VALID,19.7209,VALID,333,VALID,0,
2006-10-14, 10:18:00,VALID,919.213,VALID,0,VALID,100,VALID,-0.0339617,VALID,19.7112,VALID,333,VALID,0,
2006-10-14, 10:19:00,VALID,919.204,VALID,0,VALID,100,VALID,0,VALID,19.7179,VALID,333,VALID,0,
2006-10-14, 10:20:00,VALID,919.212,VALID,0,VALID,100,VALID,0,VALID,19.6978,VALID,333,VALID,0.00090843,
2006-10-14, 10:21:00,VALID,919.212,VALID,0,VALID,100,VALID,0,VALID,19.695,VALID,333,VALID,0.000173611,
2006-10-14, 10:22:00,VALID,919.206,VALID,0,VALID,100,VALID,0,VALID,19.6983,VALID,333,VALID,0.235938,
2006-10-14, 10:23:00,VALID,919.199,VALID,0,VALID,100,VALID,-0.0339617,VALID,19.7052,VALID,360,VALID,0.52846,
2006-10-14, 10:24:00,VALID,919.199,VALID,0,VALID,100,VALID,0.0169808,VALID,19.6918,VALID,24,VALID,0.532315,
2006-10-14, 10:25:00,VALID,919.176,VALID,0,VALID,100,VALID,-0.0169808,VALID,19.6856,VALID,24,VALID,0.743253,
2006-10-14, 10:26:00,VALID,919.163,VALID,0,VALID,100,VALID,0,VALID,19.6854,VALID,28,VALID,0.796512,
2006-10-14, 10:27:00,VALID,919.15,VALID,0,VALID,100,VALID,0,VALID,19.6759,VALID,28,VALID,0.786044,
2006-10-14, 10:28:00,VALID,919.137,VALID,0,VALID,100,VALID,0,VALID,19.6657,VALID,36,VALID,0.855674,
2006-10-14, 10:29:00,VALID,919.119,VALID,0,VALID,100,VALID,0,VALID,19.666,VALID,32,VALID,0.847743,
2006-10-14, 10:30:00,VALID,919.097,VALID,0,VALID,100,VALID,0,VALID,19.663,VALID,33,VALID,1.04287,
2006-10-14, 10:31:00,VALID,919.091,VALID,0,VALID,100,VALID,-0.0169808,VALID,19.6501,VALID,35,VALID,0.857013,
2006-10-14, 10:32:00,VALID,919.072,VALID,0,VALID,100,VALID,-0.0169808,VALID,19.6369,VALID,32,VALID,1.16332,
2006-10-14, 10:33:00,VALID,919.066,VALID,0,VALID,100,VALID,0,VALID,19.6206,VALID,33,VALID,0.822621,
2006-10-14, 10:34:00,VALID,919.054,VALID,0,VALID,100,VALID,0,VALID,19.6077,VALID,31,VALID,1.00019,
2006-10-14, 10:35:00,VALID,919.048,VALID,0,VALID,100,VALID,-0.0509425,VALID,19.5947,VALID,23,VALID,1.18732,
2006-10-14, 10:36:00,VALID,919.041,VALID,0,VALID,100,VALID,0,VALID,19.5789,VALID,9,VALID,0.966518,
2006-10-14, 10:37:00,VALID,919.038,VALID,0,VALID,100,VALID,-0.0339617,VALID,19.5823,VALID,5,VALID,1.15407,
2006-10-14, 10:38:00,VALID,919.042,VALID,0,VALID,100,VALID,0,VALID,19.5856,VALID,4,VALID,0.945668,
2006-10-14, 10:39:00,VALID,919.052,VALID,0,VALID,100,VALID,0,VALID,19.5726,VALID,20,VALID,0.927684,
2006-10-14, 10:40:00,VALID,919.068,VALID,0,VALID,100,VALID,-0.0509425,VALID,19.5726,VALID,29,VALID,0.93378,
2006-10-14, 10:41:00,VALID,919.089,VALID,0,VALID,100,VALID,-0.0509425,VALID,19.5697,VALID,36,VALID,0.902435,
2006-10-14, 10:42:00,VALID,919.1,VALID,0,VALID,100,VALID,-0.0679233,VALID,19.5639,VALID,39,VALID,0.807231,
2006-10-14, 10:43:00,VALID,919.112,VALID,0,VALID,100,VALID,-0.0169808,VALID,19.5473,VALID,50,VALID,0.609012,
2006-10-14, 10:44:00,VALID,919.112,VALID,0,VALID,100,VALID,-0.0339617,VALID,19.5277,VALID,38,VALID,1.04836,
2006-10-14, 10:45:00,VALID,919.113,VALID,0,VALID,100,VALID,-0.0679233,VALID,19.5083,VALID,32,VALID,1.08242,
2006-10-14, 10:46:00,VALID,919.12,VALID,0,VALID,100,VALID,-0.0339617,VALID,19.4887,VALID,29,VALID,1.3919,
2006-10-14, 10:47:00,VALID,919.12,VALID,0,VALID,100,VALID,-0.0339617,VALID,19.4724,VALID,57,VALID,0.850818,
2006-10-14, 10:48:00,VALID,919.124,VALID,0,VALID,100,VALID,-0.0339617,VALID,19.4632,VALID,37,VALID,1.00908,